SL-14 DEB

Satellite information

Favourite Embed

Satellite Type and Status

DEBRISIN ORBIT

Key statistics

Satellite SL-14 DEB at a glance.

Uptime

13951

Days in orbit

Revolutions

≈ 14.0

Per day

Orbit

LEO

Low Earth Orbit

Inclination

82.5

Latest

Satellite identification and parameters

Extended collection of information and parameters for SL-14 DEB.

Object identification

Identified? True

Debris? True

Object name: SL-14 DEB

International designator: 1987-068DC

Object number (NORAD): 39976

Object ID (CCSDS): 39976

Country: COMMONWEALTH OF INDEPENDENT STATES (CIS)

Current information (Y/N): Y

RCS size: SMALL

Orbital parameters

Period: 102.612 minutes

Inclination: 82.5499 deg

SMA: 7260.376 km

Apoapsis: 887.692 km

Periapsis: 876.789 km

RAAN: 356.4716 deg

Eccentricy: 0.00075087

Argument of periapsis: 322.7493 deg

Mean anomaly: 37.3156 deg

Mean motion: 14.03343921 rev/day

Mean motion (dot): 0.00002031 rev/day2

B* drag term: 0.0012909785 1/REarth

Two-line elements (TLE)

Creation date: Oct. 19, 2025, 2:20 a.m.

Reference frame: TEME

Reference center: EARTH

Epoch: Oct. 18, 2025, 9:48 p.m. UTC

TLE line 0: 0 SL-14 DEB

TLE line 1: 1 39976U 87068DC 25291.90849431 .00002031 00000-0 12910-2 0 9991

TLE line 2: 2 39976 82.5499 356.4716 0007509 322.7493 37.3156 14.03343921 98345

Live tracking on map

Real-time ground track for satellite SL-14 DEB.

In-orbit conjunctions

A list of the most updated potential collisions computed for object SL-14 DEB.

Target Orbit TCA Probability of collision Miss distance Type
SL-3 R/B LEO 2025-10-21 07:28:31 0.001054706 58.0 (m) ROCKET BODY
FENGYUN 1C DEB SSO 2024-11-14 06:52:23 0.0001520856 763.0 (m) DEBRIS

Associated space launch

Second generation soviet meteorological satellite

SL-14 DEB was lifted into orbit during the mission ‘Tsiklon-3 | Meteor-2 16’, on board a Tsiklon-3 space rocket.

The launch took place on Aug. 18, 1987, 2:27 a.m. from 32/1.

For more information about the launch, click the button.

Launch to space Tsiklon-3 | Meteor-2 16
Tsiklon-3 | Meteor-2 16

Agency: N/A

Status: Launch Successful

Launch date: Aug. 18, 1987, 2:27 a.m. UTC

Rocket: Tsiklon-3

Launch pad: 32/1

Location: Plesetsk Cosmodrome, Russian Federation

...

Latest news about this satellite

There are no fresh news available about this satellite. Check back as we update our databases every day.


Newsletter sign-up

Weekly statistics, charts and insights to help you stay on top of the space industry.